Regional Weather Roundup
Issued by NWS

Home | Current Version | Previous Version | Text Only | Print | Product List | Glossary Off
Versions: 1 2 3 4 5 6 7 8 9 10 11 12 13 14 15 16 17 18 19 20 21 22 23 24 25 26 27 28 29 30 31 32 33 34 35 36 37 38 39 40 41 42 43 44 45 46 47 48 49 50

000
ASUS43 KIND 281459
RWRIN

WEATHER ROUNDUP FOR INDIANA
NATIONAL WEATHER SERVICE INDIANAPOLIS IN
1100 AM EDT MON JUL 28 2014

NOTE: "FAIR" INDICATES FEW OR NO CLOUDS BELOW 12,000 FEET WITH NO
SIGNIFICANT WEATHER AND/OR OBSTRUCTIONS TO VISIBILITY.

* - STATION DOES NOT REPORT WEATHER SUCH AS PRECIPITATION OR FOG.

+ - STATION NOT QUALITY CONTROLLED BY THE NATIONAL WEATHER SERVICE.
    USE DATA WITH CAUTION...ESPECIALLY DEWPOINT AND RELATIVE
    HUMIDITY OBSERVATIONS.

INZ001>003-010>013-019-020-281600-
NORTHWEST INDIANA

CITY           SKY/WX    TMP DP  RH WIND       PRES   REMARKS
GARY /AIRPORT/ PTSUNNY   66  54  63 N17G29    30.05R
VALPARAISO     CLOUDY    60  53  77 N12G18    30.04R

$$

LMZ046-743>745-281600-
SOUTHERN LAKE MICHIGAN

STATION/POSITION TIME  TEMP WIND        PRES
                       AIR  DIR/SP/G
                 (UTC) (F)  (DEG/KT/KT) (MB)
MICHIGAN CITY    1400   60  340/ 23/ 27   N/A

$$

INZ004-005-014>016-021>024-281600-
NORTH CENTRAL INDIANA

CITY           SKY/WX    TMP DP  RH WIND       PRES   REMARKS
ELKHART        CLOUDY    63  55  77 NW8       30.00
GOSHEN         CLOUDY    64  55  72 N10       29.98R
SOUTH BEND     CLOUDY    62  53  72 NW14      30.01R

$$

INZ006>009-017-018-025>027-281600-
NORTHEAST INDIANA

CITY           SKY/WX    TMP DP  RH WIND       PRES   REMARKS
ANGOLA *+      CLOUDY    64  57  77 NW10      29.95R
FORT WAYNE     PTSUNNY   67  58  72 NW13G20   29.96R

$$

INZ028-029-035-036-043>045-051>053-281600-
WEST CENTRAL INDIANA

CITY           SKY/WX    TMP DP  RH WIND       PRES   REMARKS
GREENCASTLE +  PTSUNNY   66  55  68 N13       30.02R
LAFAYETTE      MOSUNNY   67  55  65 N16       30.02R
TERRE HAUTE    SUNNY     69  57  65 N10       30.03R

$$

INZ030>032-037>040-046>048-054>057-064-065-281600-
CENTRAL INDIANA

CITY           SKY/WX    TMP DP  RH WIND       PRES   REMARKS
ANDERSON       CLOUDY    64  57  77 NW12      29.99R
COLUMBUS       CLOUDY    66  59  77 NW8       29.98R
INDIANAPOLIS   CLOUDY    63  56  78 NW12      30.00R
-EAGLE CREEK   CLOUDY    63  56  78 NW13      30.00R
KOKOMO *+      CLOUDY    64  55  72 NW14      29.99S
MT COMFORT *+  CLOUDY    64  64 100 NW14G20   29.99S
SHELBYVILLE    CLOUDY    69  59  70 NW15      29.97R

$$

INZ033-034-041-042-049-050-058-059-281600-
EAST CENTRAL INDIANA

CITY           SKY/WX    TMP DP  RH WIND       PRES   REMARKS
MUNCIE         PTSUNNY   66  59  78 NW15G21   29.97R

$$

INZ060-061-067>069-081>083-085>088-281600-
SOUTHWEST INDIANA

CITY           SKY/WX    TMP DP  RH WIND       PRES   REMARKS
EVANSVILLE     PTSUNNY   71  59  65 NW10      30.03R

$$

INZ062-063-066-070>080-084-089>092-281600-
SOUTH CENTRAL AND SOUTHEAST INDIANA

CITY           SKY/WX    TMP DP  RH WIND       PRES   REMARKS
BLOOMINGTON    PTSUNNY   69  57  65 N12       30.01R

$$




USA.gov is the U.S. government's official web portal to all federal, state and local government web resources and services.